Вернуться в каталог

STARLINK-36322

АктивенСвязьVLEO
NORAD 68522·PAYLOAD·🇺🇸 United States

Запущен Mar 30, 2026 с Cape Canaveral Space Force Station

Loading…

Ближайшие Пролёты (ближайшие 24 часа)

TLE

СвежийSource: CelesTrak SupGP

Эпоха: Sep 14, 2026, 23:28 UTC

1 68522C 26068Q   26257.97826389  .00036316  00000+0  10736-2 0  2573
2 68522  53.1590 325.4745 0001154  86.7900 146.6453 15.34355448    11

Отслеживайте STARLINK-36322 в реальном времени с AllMySat

Download on the App Store